カタログに戻る

COSMOS 2408

運用中ナビゲーションPO
NORAD 28419·PAYLOAD·🇷🇺 Russia

打ち上げ Sep 23, 2004 から Plesetsk Cosmodrome

Loading…

次のパス (今後24時間)

TLE

最新Source: Space-Track

元期: Sep 14, 2026, 23:06 UTC

1 28419U 04037A   26257.96316497  .00000097  00000-0  60660-3 0  9992
2 28419  82.4788 269.6188 0017179  73.1632 287.1332 12.45682463999082

AllMySatでCOSMOS 2408をリアルタイム追跡

Download on the App Store